Location: Unspecified
(50.7693°N, 0.0000°E)
Time: 21:55:42
(UTC+00:00)

Transit 4A - Pass Details

Date: 01 July 2019
Orbit: 862 x 982 km, 66.8° (Epoch: 15 July)

Event Time Altitude Azimuth Distance (km) Brightness Sun altitude
Rises 05:06:45 0° 174° (S) 3,622 10.8 9.3°
Reaches altitude 10° 05:09:39 10° 162° (SSE) 2,697 10.3 9.7°
Maximum altitude 05:14:46 26° 108° (ESE) 1,802 10.3 10.4°
Drops below altitude 10° 05:19:56 10° 54° (NE) 2,743 12.5 11.2°
Sets 05:22:54 0° 43° (NE) 3,697 12.4 11.6°
